Location: Unspecified
(0.0000°N, 0.0000°E)
Time: 12:35:39
(UTC+00:00)

Explorer 11/Cluster Stage 4 - Visible Passes

Search period start: 24 February 2017 00:00
Search period end: 06 March 2017 00:00
Orbit: 467 x 1263 km, 28.8° (Epoch: 23 February)

Date Brightness Start Highest point End Pass type
(mag) Time Alt. Az. Time Alt. Az. Time Alt. Az.
24 Feb 9.3 04:35:32 11° NNW 04:35:32 11° NNW 04:36:55 10° N visible
01 Mar 8.8 20:13:19 10° S 20:13:42 11° S 20:13:42 11° S visible
02 Mar 8.5 20:03:06 10° SSW 20:04:21 15° S 20:04:21 15° S visible
03 Mar 8.0 19:52:58 10° SSW 19:55:05 19° S 19:55:05 19° S visible
04 Mar 7.5 19:42:53 10° SSW 19:45:52 25° SSE 19:45:52 25° SSE visible
05 Mar 9.7 04:58:22 10° N 04:59:01 10° NNE 04:59:39 10° NNE visible
05 Mar 7.0 19:32:52 10° SSW 19:36:42 32° SSE 19:36:43 32° SE visible
